FIA983 LUKK-LRCL

Flight info

Callsign FIA983
Flight time N/A
Altitude 32000
Route POGAV DCT DOKUD
Aircraft A321/M-SDE3FGHIRWY/LB1

Departure

Time N/A
Airport Chişinău International Airport (LUKK)

Arrival

Time 2026-04-30 19:23
Airport Avram Iancu Cluj International Airport (LRCL)
Time Latitude Longitude Altitude Speed Heading
2026-04-30 18:55 46.73380 27.36946 28329 ft 402 kts 263°
2026-04-30 18:56 46.72187 27.24854 28336 ft 404 kts 265°
2026-04-30 18:57 46.72594 27.12614 28335 ft 403 kts 275°
2026-04-30 18:57 46.73014 27.04456 28334 ft 403 kts 275°
2026-04-30 18:58 46.73623 26.92224 28322 ft 403 kts 275°
2026-04-30 18:59 46.74196 26.80004 28316 ft 405 kts 275°
2026-04-30 19:00 46.74969 26.63548 28323 ft 406 kts 275°
2026-04-30 19:01 46.75703 26.47148 28333 ft 407 kts 276°
2026-04-30 19:02 46.76259 26.34748 28344 ft 410 kts 276°
2026-04-30 19:03 46.76968 26.18142 28361 ft 410 kts 276°
2026-04-30 19:04 46.77644 26.01496 28351 ft 411 kts 277°
2026-04-30 19:04 46.77978 25.93176 28076 ft 405 kts 277°
2026-04-30 19:05 46.78296 25.85078 27322 ft 394 kts 277°
2026-04-30 19:05 46.78598 25.77216 26411 ft 386 kts 277°
2026-04-30 19:06 46.78888 25.69476 25551 ft 377 kts 277°
2026-04-30 19:06 46.79031 25.65678 25127 ft 373 kts 277°
2026-04-30 19:06 46.79310 25.58191 24301 ft 366 kts 278°
2026-04-30 19:07 46.79583 25.50830 23413 ft 360 kts 277°
2026-04-30 19:07 46.79715 25.47199 22998 ft 355 kts 277°
2026-04-30 19:08 46.79968 25.40101 22174 ft 354 kts 277°
2026-04-30 19:08 46.80256 25.32352 21247 ft 399 kts 277°
2026-04-30 19:08 46.80397 25.28301 20771 ft 400 kts 276°
2026-04-30 19:09 46.80658 25.20234 19788 ft 395 kts 276°
2026-04-30 19:09 46.80784 25.16236 19317 ft 393 kts 276°
2026-04-30 19:09 46.80908 25.12258 18841 ft 391 kts 276°
2026-04-30 19:10 46.81158 25.04386 17862 ft 385 kts 276°
2026-04-30 19:10 46.81406 24.96640 16933 ft 379 kts 276°
2026-04-30 19:11 46.81524 24.92799 16485 ft 376 kts 276°
2026-04-30 19:11 46.81755 24.85265 15601 ft 371 kts 276°
2026-04-30 19:11 46.81870 24.81509 15152 ft 369 kts 276°
2026-04-30 19:12 46.81980 24.77785 14831 ft 362 kts 276°
2026-04-30 19:12 46.82082 24.74172 14578 ft 352 kts 276°
2026-04-30 19:12 46.82184 24.70617 14105 ft 349 kts 276°
2026-04-30 19:13 46.82392 24.63576 13158 ft 343 kts 276°
2026-04-30 19:13 46.82594 24.56693 12191 ft 337 kts 275°
2026-04-30 19:13 46.82689 24.53331 11723 ft 335 kts 275°
2026-04-30 19:14 46.82782 24.49920 11198 ft 334 kts 275°
2026-04-30 19:14 46.82872 24.46558 10817 ft 330 kts 275°
2026-04-30 19:14 46.82960 24.43230 10485 ft 324 kts 275°
2026-04-30 19:14 46.83042 24.40007 10351 ft 311 kts 275°
2026-04-30 19:15 46.83118 24.36907 10231 ft 300 kts 275°
2026-04-30 19:15 46.83265 24.30995 9711 ft 286 kts 275°
2026-04-30 19:15 46.83340 24.28095 9304 ft 285 kts 275°
2026-04-30 19:16 46.83415 24.25202 8897 ft 283 kts 274°
2026-04-30 19:16 46.83489 24.22362 8491 ft 282 kts 274°
2026-04-30 19:16 46.83633 24.16653 7690 ft 280 kts 274°
2026-04-30 19:17 46.83701 24.13795 7286 ft 279 kts 274°
2026-04-30 19:17 46.83836 24.08150 6487 ft 277 kts 273°
2026-04-30 19:17 46.83902 24.05338 6066 ft 276 kts 273°
2026-04-30 19:18 46.84008 24.00693 4910 ft 282 kts 272°
2026-04-30 19:18 46.84091 23.96948 4431 ft 264 kts 271°
2026-04-30 19:18 46.84149 23.94334 4313 ft 252 kts 271°
2026-04-30 19:19 46.83986 23.91864 4192 ft 239 kts 253°
2026-04-30 19:19 46.83487 23.89603 3943 ft 231 kts 250°
2026-04-30 19:19 46.82530 23.85314 3354 ft 214 kts 250°
2026-04-30 19:20 46.82083 23.83310 3065 ft 198 kts 250°
2026-04-30 19:20 46.81678 23.81492 2812 ft 177 kts 249°
2026-04-30 19:20 46.80968 23.78323 2294 ft 151 kts 248°
2026-04-30 19:21 46.80657 23.76937 2107 ft 138 kts 248°
2026-04-30 19:21 46.80072 23.74221 1710 ft 143 kts 249°
2026-04-30 19:22 46.79436 23.71464 1339 ft 145 kts 250°
2026-04-30 19:22 46.78605 23.67786 1035 ft 64 kts 251°
2026-04-30 19:23 46.78407 23.67207 1038 ft 17 kts 160°
2026-04-30 19:24 46.78373 23.67570 1036 ft 28 kts 78°
2026-04-30 19:24 46.78408 23.67845 1034 ft 28 kts 79°
2026-04-30 19:24 46.78485 23.68394 1031 ft 28 kts 78°
2026-04-30 19:25 46.78402 23.68666 1030 ft 9 kts 168°
2026-04-30 19:26 46.78312 23.68673 1030 ft 0 kts 172°